Data No,UTC Date,UTC Time,Latitude,Longitude,Course(deg),Temp(degC),Sal(psu)
47,2006/11/1,4:53:00,  5-00.169N,113-59.868E,31.3,29.9698,32.2144
48,2006/11/1,4:54:00,  5-00.378N,113-59.994E,33.1,29.9778,32.2104
49,2006/11/1,4:55:00,  5-00.586N,114-00.121E,31.7,29.9809,32.2099
50,2006/11/1,4:56:00,  5-00.794N,114-00.250E,31.1,29.9806,32.2117
51,2006/11/1,4:57:00,  5-01.001N,114-00.378E,33.7,29.9854,32.2099
52,2006/11/1,4:58:00,  5-01.209N,114-00.503E,30.6,29.9985,32.2066
53,2006/11/1,4:59:00,  5-01.417N,114-00.630E,32.7,29.9917,32.204
54,2006/11/1,5:00:00,  5-01.624N,114-00.759E,32.6,29.9955,32.2016
55,2006/11/1,5:01:00,  5-01.832N,114-00.886E,31.2,29.9968,32.1998
56,2006/11/1,5:02:00,  5-02.038N,114-01.013E,31.6,30.0022,32.196
57,2006/11/1,5:03:00,  5-02.246N,114-01.140E,32.3,30.0009,32.1832
58,2006/11/1,5:04:00,  5-02.453N,114-01.268E,31.5,30.0042,32.1731
59,2006/11/1,5:05:00,  5-02.660N,114-01.396E,31.9,29.9982,32.163
60,2006/11/1,5:06:00,  5-02.868N,114-01.525E,33.1,30.0018,32.1528
61,2006/11/1,5:07:00,  5-03.076N,114-01.652E,31.7,29.9998,32.1444
62,2006/11/1,5:08:00,  5-03.284N,114-01.780E,31.9,30.0084,32.1374
63,2006/11/1,5:09:00,  5-03.492N,114-01.908E,32.8,30.0811,32.1233
64,2006/11/1,5:10:00,  5-03.701N,114-02.036E,33.4,30.0868,32.1189
65,2006/11/1,5:11:00,  5-03.901N,114-02.179E,36.9,30.0845,32.121
66,2006/11/1,5:12:00,  5-04.100N,114-02.323E,34,30.0845,32.1212
67,2006/11/1,5:13:00,  5-04.298N,114-02.468E,39.1,30.083,32.118
68,2006/11/1,5:14:00,  5-04.495N,114-02.613E,37,30.0836,32.1137
69,2006/11/1,5:15:00,  5-04.692N,114-02.757E,35.2,30.0834,32.11
70,2006/11/1,5:16:00,  5-04.887N,114-02.902E,37.2,30.092,32.1148
71,2006/11/1,5:17:00,  5-05.086N,114-03.046E,36.1,30.0811,32.1216
72,2006/11/1,5:18:00,  5-05.280N,114-03.194E,36.9,30.0857,32.1271
73,2006/11/1,5:19:00,  5-05.474N,114-03.343E,36.3,30.0806,32.1342
74,2006/11/1,5:20:00,  5-05.669N,114-03.492E,35.2,30.0678,32.1362
75,2006/11/1,5:21:00,  5-05.865N,114-03.642E,35,30.0706,32.1447
76,2006/11/1,5:22:00,  5-06.060N,114-03.790E,39.6,30.088,32.1587
77,2006/11/1,5:23:00,  5-06.254N,114-03.939E,39.2,30.0757,32.1779
78,2006/11/1,5:24:00,  5-06.448N,114-04.089E,38.2,30.0748,32.184
79,2006/11/1,5:25:00,  5-06.643N,114-04.240E,39.3,30.0762,32.1871
80,2006/11/1,5:26:00,  5-06.839N,114-04.389E,36.8,30.0725,32.1898
81,2006/11/1,5:27:00,  5-07.032N,114-04.541E,42.2,30.0735,32.1941
82,2006/11/1,5:28:00,  5-07.226N,114-04.689E,41.3,30.0779,32.2014
83,2006/11/1,5:29:00,  5-07.416N,114-04.838E,38.2,30.0858,32.2201
84,2006/11/1,5:30:00,  5-07.608N,114-04.986E,39.9,30.0812,32.2402
85,2006/11/1,5:31:00,  5-07.799N,114-05.133E,38.8,30.0872,32.2477
86,2006/11/1,5:32:00,  5-07.991N,114-05.283E,37.4,30.0972,32.2552
87,2006/11/1,5:33:00,  5-08.184N,114-05.433E,37.2,30.0989,32.2698
88,2006/11/1,5:34:00,  5-08.377N,114-05.582E,36.8,30.0972,32.2861
89,2006/11/1,5:35:00,  5-08.570N,114-05.731E,35.5,30.1,32.3011
90,2006/11/1,5:36:00,  5-08.769N,114-05.873E,35.1,30.1032,32.3193
91,2006/11/1,5:37:00,  5-08.965N,114-06.018E,35.6,30.1098,32.3387
92,2006/11/1,5:38:00,  5-09.162N,114-06.162E,33.6,30.1158,32.3463
93,2006/11/1,5:39:00,  5-09.360N,114-06.306E,36.2,30.1081,32.3373
94,2006/11/1,5:40:00,  5-09.557N,114-06.451E,35.3,30.1052,32.3254
95,2006/11/1,5:41:00,  5-09.754N,114-06.596E,36.5,30.109,32.3191
96,2006/11/1,5:42:00,  5-09.953N,114-06.740E,34.7,30.1093,32.34
97,2006/11/1,5:43:00,  5-10.148N,114-06.886E,35.9,30.1165,32.3551
98,2006/11/1,5:44:00,  5-10.346N,114-07.030E,35.3,30.1181,32.3593
99,2006/11/1,5:45:00,  5-10.544N,114-07.176E,37.6,30.1205,32.3637
100,2006/11/1,5:46:00,  5-10.742N,114-07.321E,38.2,30.1187,32.3743
101,2006/11/1,5:47:00,  5-10.940N,114-07.468E,36.5,30.1195,32.3827
102,2006/11/1,5:48:00,  5-11.141N,114-07.613E,36.3,30.114,32.3868
103,2006/11/1,5:49:00,  5-11.340N,114-07.759E,38.6,30.1099,32.3881
104,2006/11/1,5:50:00,  5-11.537N,114-07.906E,35.5,30.1152,32.3892
105,2006/11/1,5:51:00,  5-11.735N,114-08.053E,37.9,30.1074,32.3894
106,2006/11/1,5:52:00,  5-11.933N,114-08.199E,35.4,30.1073,32.3889
107,2006/11/1,5:53:00,  5-12.131N,114-08.344E,37,30.1065,32.3874
108,2006/11/1,5:54:00,  5-12.330N,114-08.491E,37.1,30.1027,32.3867
109,2006/11/1,5:55:00,  5-12.528N,114-08.639E,34.9,30.1046,32.386
110,2006/11/1,5:56:00,  5-12.726N,114-08.787E,37.2,30.1033,32.3875
111,2006/11/1,5:57:00,  5-12.923N,114-08.934E,36.6,30.1118,32.3886
112,2006/11/1,5:58:00,  5-13.120N,114-09.080E,34.2,30.1141,32.3871
113,2006/11/1,5:59:00,  5-13.316N,114-09.225E,39,30.1053,32.3847
114,2006/11/1,6:00:00,  5-13.512N,114-09.372E,39,30.1048,32.3829
115,2006/11/1,6:01:00,  5-13.708N,114-09.520E,37.1,30.0923,32.384
116,2006/11/1,6:02:00,  5-13.905N,114-09.666E,38.1,30.0943,32.3857
117,2006/11/1,6:03:00,  5-14.102N,114-09.811E,36.1,30.0894,32.3889
118,2006/11/1,6:04:00,  5-14.297N,114-09.957E,36.4,30.0834,32.3911
119,2006/11/1,6:05:00,  5-14.493N,114-10.104E,39.1,30.0801,32.3936
120,2006/11/1,6:06:00,  5-14.689N,114-10.252E,33.9,30.085,32.3959
121,2006/11/1,6:07:00,  5-14.887N,114-10.399E,37.4,30.0815,32.3957
122,2006/11/1,6:08:00,  5-15.084N,114-10.547E,37.2,30.0719,32.3942
123,2006/11/1,6:09:00,  5-15.281N,114-10.695E,37.8,30.0822,32.3934
124,2006/11/1,6:10:00,  5-15.478N,114-10.841E,36,30.072,32.394
125,2006/11/1,6:11:00,  5-15.675N,114-10.990E,37.1,30.0746,32.3932
126,2006/11/1,6:12:00,  5-15.874N,114-11.138E,36.9,30.069,32.3909
127,2006/11/1,6:13:00,  5-16.071N,114-11.287E,36.4,30.0555,32.388
128,2006/11/1,6:14:00,  5-16.271N,114-11.435E,36.4,30.0453,32.3906
129,2006/11/1,6:15:00,  5-16.469N,114-11.583E,37.1,30.0376,32.4015
130,2006/11/1,6:16:00,  5-16.667N,114-11.731E,34.8,30.0516,32.4108
131,2006/11/1,6:17:00,  5-16.865N,114-11.878E,36,30.0497,32.416
132,2006/11/1,6:18:00,  5-17.062N,114-12.025E,36.4,30.0669,32.417
133,2006/11/1,6:19:00,  5-17.258N,114-12.172E,38.7,30.048,32.412
134,2006/11/1,6:20:00,  5-17.454N,114-12.317E,36.8,30.0359,32.4053
135,2006/11/1,6:21:00,  5-17.649N,114-12.464E,35.9,30.018,32.4083
136,2006/11/1,6:22:00,  5-17.843N,114-12.610E,37.7,30.0162,32.4214
137,2006/11/1,6:23:00,  5-18.037N,114-12.756E,36.2,30.0004,32.4321
138,2006/11/1,6:24:00,  5-18.231N,114-12.902E,36.4,29.9994,32.4403
139,2006/11/1,6:25:00,  5-18.425N,114-13.047E,37.6,29.9851,32.4485
140,2006/11/1,6:26:00,  5-18.618N,114-13.193E,38.5,29.9836,32.4573
141,2006/11/1,6:27:00,  5-18.813N,114-13.340E,35.7,29.9847,32.4654
142,2006/11/1,6:28:00,  5-19.009N,114-13.486E,35.7,29.9863,32.4724
143,2006/11/1,6:29:00,  5-19.203N,114-13.631E,35.6,29.9914,32.4767
144,2006/11/1,6:30:00,  5-19.395N,114-13.774E,36.6,30.0091,32.4799
145,2006/11/1,6:31:00,  5-19.587N,114-13.917E,34.7,30.0205,32.4882
146,2006/11/1,6:32:00,  5-19.779N,114-14.057E,31.1,30.0089,32.497
147,2006/11/1,6:33:00,  5-19.976N,114-14.187E,32.8,29.9948,32.5051
148,2006/11/1,6:34:00,  5-20.172N,114-14.316E,33.4,29.9616,32.5191
149,2006/11/1,6:35:00,  5-20.364N,114-14.446E,34.5,29.9496,32.5415
150,2006/11/1,6:36:00,  5-20.552N,114-14.574E,33.8,29.9329,32.5677
151,2006/11/1,6:37:00,  5-20.740N,114-14.702E,38.3,29.9015,32.5972
152,2006/11/1,6:38:00,  5-20.927N,114-14.826E,32.7,29.8112,32.6309
153,2006/11/1,6:39:00,  5-21.113N,114-14.951E,33.2,29.7388,32.6684
154,2006/11/1,6:40:00,  5-21.296N,114-15.078E,33.7,29.7337,32.7159
155,2006/11/1,6:41:00,  5-21.480N,114-15.203E,32.1,29.7698,32.7493
156,2006/11/1,6:42:00,  5-21.663N,114-15.329E,34.1,29.8038,32.7701
157,2006/11/1,6:43:00,  5-21.845N,114-15.455E,34.6,29.836,32.7823
158,2006/11/1,6:44:00,  5-22.027N,114-15.579E,37.2,29.8487,32.7931
159,2006/11/1,6:45:00,  5-22.207N,114-15.704E,32.1,29.8282,32.7992
160,2006/11/1,6:46:00,  5-22.390N,114-15.827E,35.3,29.7762,32.7972
161,2006/11/1,6:47:00,  5-22.573N,114-15.952E,37,29.7226,32.7882
162,2006/11/1,6:48:00,  5-22.757N,114-16.078E,34.5,29.7007,32.7752
163,2006/11/1,6:49:00,  5-22.941N,114-16.202E,34,29.6994,32.7636
164,2006/11/1,6:50:00,  5-23.125N,114-16.328E,34.5,29.6865,32.7563
165,2006/11/1,6:51:00,  5-23.308N,114-16.452E,32.5,29.7032,32.7533
166,2006/11/1,6:52:00,  5-23.492N,114-16.577E,32.8,29.6996,32.75
167,2006/11/1,6:53:00,  5-23.675N,114-16.701E,33.2,29.7158,32.7477
168,2006/11/1,6:54:00,  5-23.859N,114-16.826E,32,29.7226,32.7455
169,2006/11/1,6:55:00,  5-24.044N,114-16.951E,33.8,29.6996,32.7453
170,2006/11/1,6:56:00,  5-24.230N,114-17.074E,35.5,29.6989,32.7435
171,2006/11/1,6:57:00,  5-24.417N,114-17.200E,34.7,29.6932,32.7408
172,2006/11/1,6:58:00,  5-24.603N,114-17.325E,37.3,29.7065,32.7377
173,2006/11/1,6:59:00,  5-24.790N,114-17.452E,32.7,29.6931,32.7343
174,2006/11/1,7:00:00,  5-24.975N,114-17.579E,35.6,29.7254,32.7347
175,2006/11/1,7:01:00,  5-25.160N,114-17.704E,36.2,29.7907,32.7317
176,2006/11/1,7:02:00,  5-25.347N,114-17.827E,34.8,29.8056,32.7306
177,2006/11/1,7:03:00,  5-25.532N,114-17.951E,33.1,29.7928,32.7335
178,2006/11/1,7:04:00,  5-25.717N,114-18.073E,34.6,29.8015,32.7328
179,2006/11/1,7:05:00,  5-25.901N,114-18.199E,35.1,29.7612,32.7312
180,2006/11/1,7:06:00,  5-26.086N,114-18.325E,34.9,29.7549,32.7285
181,2006/11/1,7:07:00,  5-26.271N,114-18.450E,34.8,29.7924,32.7257
182,2006/11/1,7:08:00,  5-26.455N,114-18.575E,33.2,29.7764,32.7223
183,2006/11/1,7:09:00,  5-26.639N,114-18.702E,35.3,29.774,32.7213
184,2006/11/1,7:10:00,  5-26.824N,114-18.826E,34.6,29.7558,32.7195
185,2006/11/1,7:11:00,  5-27.008N,114-18.952E,33.7,29.7639,32.7145
186,2006/11/1,7:12:00,  5-27.192N,114-19.078E,33.4,29.741,32.7082
187,2006/11/1,7:13:00,  5-27.377N,114-19.203E,34.5,29.7665,32.7011
188,2006/11/1,7:14:00,  5-27.562N,114-19.329E,34.8,29.7657,32.692
189,2006/11/1,7:15:00,  5-27.748N,114-19.453E,32.9,29.7502,32.6854
190,2006/11/1,7:16:00,  5-27.933N,114-19.579E,33.8,29.7081,32.6805
191,2006/11/1,7:17:00,  5-28.117N,114-19.705E,33.1,29.6707,32.6754
192,2006/11/1,7:18:00,  5-28.302N,114-19.828E,33.2,29.68,32.6704
193,2006/11/1,7:19:00,  5-28.487N,114-19.954E,33,29.7027,32.6652
194,2006/11/1,7:20:00,  5-28.672N,114-20.080E,35.1,29.726,32.664
195,2006/11/1,7:21:00,  5-28.859N,114-20.203E,33.6,29.693,32.664
196,2006/11/1,7:22:00,  5-29.044N,114-20.325E,31.9,29.6753,32.6659
197,2006/11/1,7:23:00,  5-29.231N,114-20.450E,33.3,29.6749,32.6651
198,2006/11/1,7:24:00,  5-29.416N,114-20.576E,32.1,29.6454,32.6654
199,2006/11/1,7:25:00,  5-29.602N,114-20.700E,35.7,29.6487,32.6662
200,2006/11/1,7:26:00,  5-29.787N,114-20.824E,33.3,29.6678,32.6661
201,2006/11/1,7:27:00,  5-29.973N,114-20.947E,37.3,29.6765,32.6677
202,2006/11/1,7:28:00,  5-30.158N,114-21.070E,34.2,29.6607,32.6723
203,2006/11/1,7:29:00,  5-30.343N,114-21.194E,34.9,29.6643,32.6767
204,2006/11/1,7:30:00,  5-30.529N,114-21.318E,36.5,29.6453,32.6842
205,2006/11/1,7:31:00,  5-30.715N,114-21.441E,33.2,29.6688,32.69
206,2006/11/1,7:32:00,  5-30.901N,114-21.567E,35.7,29.6821,32.6947
207,2006/11/1,7:33:00,  5-31.082N,114-21.697E,35.2,29.7437,32.6993
208,2006/11/1,7:34:00,  5-31.264N,114-21.826E,33.2,29.7803,32.703
209,2006/11/1,7:35:00,  5-31.447N,114-21.955E,34.3,29.7951,32.7061
210,2006/11/1,7:36:00,  5-31.631N,114-22.084E,34.6,29.7678,32.7074
211,2006/11/1,7:37:00,  5-31.814N,114-22.213E,35.7,29.792,32.7086
212,2006/11/1,7:38:00,  5-31.996N,114-22.341E,34,29.8183,32.7102
213,2006/11/1,7:39:00,  5-32.176N,114-22.475E,39.7,29.8315,32.7109
214,2006/11/1,7:40:00,  5-32.356N,114-22.606E,36.1,29.7418,32.7114
215,2006/11/1,7:41:00,  5-32.534N,114-22.740E,34.6,29.6685,32.7108
216,2006/11/1,7:42:00,  5-32.714N,114-22.873E,34,29.6333,32.7069
217,2006/11/1,7:43:00,  5-32.893N,114-23.007E,35.4,29.62,32.7041
218,2006/11/1,7:44:00,  5-33.073N,114-23.141E,37.3,29.6096,32.7007
219,2006/11/1,7:45:00,  5-33.253N,114-23.275E,36.2,29.6203,32.6985
220,2006/11/1,7:46:00,  5-33.434N,114-23.409E,36.3,29.6824,32.6975
221,2006/11/1,7:47:00,  5-33.614N,114-23.541E,35.2,29.7611,32.6979
222,2006/11/1,7:48:00,  5-33.793N,114-23.672E,35,29.7931,32.6998
223,2006/11/1,7:49:00,  5-33.972N,114-23.806E,35.3,29.8,32.7014
224,2006/11/1,7:50:00,  5-34.152N,114-23.938E,34.9,29.8199,32.7031
225,2006/11/1,7:51:00,  5-34.331N,114-24.071E,37,29.8135,32.7064
226,2006/11/1,7:52:00,  5-34.509N,114-24.205E,37.3,29.7931,32.7088
227,2006/11/1,7:53:00,  5-34.687N,114-24.337E,35.8,29.748,32.7127
228,2006/11/1,7:54:00,  5-34.866N,114-24.469E,36.8,29.7314,32.7172
229,2006/11/1,7:55:00,  5-35.045N,114-24.603E,36.9,29.7459,32.722
230,2006/11/1,7:56:00,  5-35.224N,114-24.737E,37.6,29.7592,32.7253
231,2006/11/1,7:57:00,  5-35.402N,114-24.870E,35.7,29.7773,32.7275
232,2006/11/1,7:58:00,  5-35.581N,114-25.002E,37.7,29.7586,32.7295
233,2006/11/1,7:59:00,  5-35.759N,114-25.135E,37.2,29.7332,32.7304
234,2006/11/1,8:00:00,  5-35.937N,114-25.270E,35.6,29.7302,32.7311
235,2006/11/1,8:01:00,  5-36.116N,114-25.404E,38.5,29.7255,32.7314
236,2006/11/1,8:02:00,  5-36.295N,114-25.536E,36.6,29.7546,32.7322
237,2006/11/1,8:03:00,  5-36.475N,114-25.670E,39.7,29.7712,32.7337
238,2006/11/1,8:04:00,  5-36.654N,114-25.803E,39.6,29.7387,32.7352
239,2006/11/1,8:05:00,  5-36.833N,114-25.937E,37.3,29.7047,32.7356
240,2006/11/1,8:06:00,  5-37.012N,114-26.071E,38.5,29.6906,32.7382
241,2006/11/1,8:07:00,  5-37.190N,114-26.204E,37.9,29.7089,32.7394
242,2006/11/1,8:08:00,  5-37.369N,114-26.336E,36.9,29.7465,32.7411
243,2006/11/1,8:09:00,  5-37.547N,114-26.469E,34.5,29.7448,32.7427
244,2006/11/1,8:10:00,  5-37.725N,114-26.601E,36,29.7527,32.7456
245,2006/11/1,8:11:00,  5-37.903N,114-26.735E,37.7,29.7626,32.7486
246,2006/11/1,8:12:00,  5-38.082N,114-26.870E,35,29.7771,32.7515
247,2006/11/1,8:13:00,  5-38.262N,114-27.004E,36.6,29.8055,32.7544
248,2006/11/1,8:14:00,  5-38.442N,114-27.138E,37.5,29.8378,32.7554
249,2006/11/1,8:15:00,  5-38.622N,114-27.271E,36.5,29.8336,32.7561
250,2006/11/1,8:16:00,  5-38.803N,114-27.404E,39.3,29.8482,32.7577
251,2006/11/1,8:17:00,  5-38.983N,114-27.538E,35.7,29.8508,32.7577
252,2006/11/1,8:18:00,  5-39.162N,114-27.673E,40.6,29.8356,32.7599
253,2006/11/1,8:19:00,  5-39.341N,114-27.808E,39.3,29.8212,32.7611
254,2006/11/1,8:20:00,  5-39.521N,114-27.941E,38.7,29.815,32.7607
255,2006/11/1,8:21:00,  5-39.702N,114-28.074E,36.9,29.8173,32.7611
256,2006/11/1,8:22:00,  5-39.882N,114-28.207E,34.8,29.8251,32.761
257,2006/11/1,8:23:00,  5-40.060N,114-28.342E,35.6,29.7887,32.7617
258,2006/11/1,8:24:00,  5-40.243N,114-28.474E,33.6,29.748,32.7621
259,2006/11/1,8:25:00,  5-40.423N,114-28.609E,37.8,29.7313,32.7636
260,2006/11/1,8:26:00,  5-40.604N,114-28.744E,35.4,29.7357,32.7634
261,2006/11/1,8:27:00,  5-40.786N,114-28.878E,37.6,29.7611,32.7636
262,2006/11/1,8:28:00,  5-40.969N,114-29.010E,38.7,29.7802,32.7642
263,2006/11/1,8:29:00,  5-41.150N,114-29.144E,37.4,29.764,32.7658
264,2006/11/1,8:30:00,  5-41.332N,114-29.278E,36.5,29.7241,32.7669
265,2006/11/1,8:31:00,  5-41.514N,114-29.413E,33.9,29.6939,32.7683
266,2006/11/1,8:32:00,  5-41.697N,114-29.546E,35.4,29.6758,32.7693
267,2006/11/1,8:33:00,  5-41.878N,114-29.680E,34.4,29.6789,32.7703
268,2006/11/1,8:34:00,  5-42.059N,114-29.814E,33.8,29.6636,32.7722
269,2006/11/1,8:35:00,  5-42.238N,114-29.949E,36.8,29.6368,32.7736
270,2006/11/1,8:36:00,  5-42.419N,114-30.083E,37.1,29.6278,32.7746
271,2006/11/1,8:37:00,  5-42.601N,114-30.218E,35.3,29.639,32.7769
272,2006/11/1,8:38:00,  5-42.782N,114-30.352E,34.9,29.6691,32.778
273,2006/11/1,8:39:00,  5-42.963N,114-30.487E,35.2,29.6531,32.7788
274,2006/11/1,8:40:00,  5-43.145N,114-30.621E,35.4,29.6532,32.7791
275,2006/11/1,8:41:00,  5-43.327N,114-30.756E,35.5,29.6281,32.7815
276,2006/11/1,8:42:00,  5-43.509N,114-30.891E,37.9,29.644,32.7827
277,2006/11/1,8:43:00,  5-43.690N,114-31.026E,36,29.633,32.7851
278,2006/11/1,8:44:00,  5-43.870N,114-31.162E,38.4,29.6411,32.7879
279,2006/11/1,8:45:00,  5-44.051N,114-31.300E,38.1,29.6629,32.79
280,2006/11/1,8:46:00,  5-44.234N,114-31.436E,36.7,29.675,32.794
281,2006/11/1,8:47:00,  5-44.416N,114-31.573E,38.5,29.6743,32.7991
282,2006/11/1,8:48:00,  5-44.597N,114-31.709E,38.7,29.7062,32.8203
283,2006/11/1,8:49:00,  5-44.779N,114-31.845E,36.1,29.7439,32.8284
284,2006/11/1,8:50:00,  5-44.959N,114-31.983E,38,29.7633,32.8326
285,2006/11/1,8:51:00,  5-45.140N,114-32.121E,37.4,29.7966,32.835
286,2006/11/1,8:52:00,  5-45.321N,114-32.260E,36.4,29.8123,32.8398
287,2006/11/1,8:53:00,  5-45.502N,114-32.397E,36.5,29.8073,32.8429
288,2006/11/1,8:54:00,  5-45.684N,114-32.535E,35.6,29.8315,32.8478
289,2006/11/1,8:55:00,  5-45.864N,114-32.674E,38.8,29.8826,32.8541
290,2006/11/1,8:56:00,  5-46.045N,114-32.810E,37.1,29.9042,32.8604
291,2006/11/1,8:57:00,  5-46.225N,114-32.947E,37.5,29.912,32.866
292,2006/11/1,8:58:00,  5-46.403N,114-33.084E,38.9,29.8975,32.8711
293,2006/11/1,8:59:00,  5-46.582N,114-33.221E,38.5,29.8678,32.8726
294,2006/11/1,9:00:00,  5-46.761N,114-33.358E,39.6,29.8385,32.8723
295,2006/11/1,9:01:00,  5-46.939N,114-33.494E,36.9,29.801,32.8671
296,2006/11/1,9:02:00,  5-47.118N,114-33.629E,35.6,29.78,32.8582
297,2006/11/1,9:03:00,  5-47.295N,114-33.763E,35,29.761,32.844
298,2006/11/1,9:04:00,  5-47.473N,114-33.895E,35,29.7208,32.8321
299,2006/11/1,9:05:00,  5-47.652N,114-34.027E,38.1,29.6451,32.8236
300,2006/11/1,9:06:00,  5-47.830N,114-34.161E,36.2,29.5942,32.8208
301,2006/11/1,9:07:00,  5-48.009N,114-34.295E,34.9,29.5725,32.8188
302,2006/11/1,9:08:00,  5-48.188N,114-34.427E,35.3,29.5731,32.8196
303,2006/11/1,9:09:00,  5-48.365N,114-34.561E,36.9,29.5925,32.8184
304,2006/11/1,9:10:00,  5-48.543N,114-34.694E,38.6,29.614,32.8194
305,2006/11/1,9:11:00,  5-48.721N,114-34.825E,34.8,29.6272,32.8209
306,2006/11/1,9:12:00,  5-48.897N,114-34.956E,36.2,29.6432,32.8215
307,2006/11/1,9:13:00,  5-49.074N,114-35.089E,35.4,29.6484,32.8229
308,2006/11/1,9:14:00,  5-49.250N,114-35.219E,36.8,29.6842,32.8255
309,2006/11/1,9:15:00,  5-49.428N,114-35.352E,37.3,29.7131,32.8265
310,2006/11/1,9:16:00,  5-49.604N,114-35.485E,34.9,29.7503,32.825
311,2006/11/1,9:17:00,  5-49.781N,114-35.616E,35.5,29.7708,32.824
312,2006/11/1,9:18:00,  5-49.958N,114-35.746E,38.8,29.7877,32.8219
313,2006/11/1,9:19:00,  5-50.135N,114-35.876E,35.8,29.7851,32.8191
314,2006/11/1,9:20:00,  5-50.312N,114-36.006E,35.8,29.7775,32.8138
315,2006/11/1,9:21:00,  5-50.487N,114-36.136E,36.7,29.7645,32.8061
316,2006/11/1,9:22:00,  5-50.663N,114-36.265E,36.6,29.7472,32.7996
317,2006/11/1,9:23:00,  5-50.839N,114-36.396E,35.9,29.7272,32.7949
318,2006/11/1,9:24:00,  5-51.015N,114-36.526E,33.8,29.702,32.7922
319,2006/11/1,9:25:00,  5-51.191N,114-36.656E,37.5,29.6787,32.7909
320,2006/11/1,9:26:00,  5-51.367N,114-36.785E,35.4,29.6952,32.7897
321,2006/11/1,9:27:00,  5-51.543N,114-36.915E,37.6,29.6977,32.7895
322,2006/11/1,9:28:00,  5-51.719N,114-37.045E,38.2,29.7054,32.7888
323,2006/11/1,9:29:00,  5-51.896N,114-37.174E,39.1,29.7114,32.7887
324,2006/11/1,9:30:00,  5-52.072N,114-37.304E,38.4,29.7179,32.789
325,2006/11/1,9:31:00,  5-52.249N,114-37.434E,36.4,29.7202,32.7893
326,2006/11/1,9:32:00,  5-52.426N,114-37.565E,36.6,29.7217,32.7898
327,2006/11/1,9:33:00,  5-52.602N,114-37.695E,37.4,29.7252,32.7903
328,2006/11/1,9:34:00,  5-52.779N,114-37.827E,37.4,29.7292,32.7897
329,2006/11/1,9:35:00,  5-52.957N,114-37.957E,38.6,29.7224,32.7899
330,2006/11/1,9:36:00,  5-53.136N,114-38.086E,38.9,29.7213,32.79
331,2006/11/1,9:37:00,  5-53.315N,114-38.218E,35.8,29.7392,32.7894
332,2006/11/1,9:38:00,  5-53.494N,114-38.348E,38.1,29.755,32.79
333,2006/11/1,9:39:00,  5-53.672N,114-38.479E,34.9,29.7677,32.7905
334,2006/11/1,9:40:00,  5-53.850N,114-38.610E,36.1,29.7759,32.7911
335,2006/11/1,9:41:00,  5-54.028N,114-38.742E,38.2,29.7852,32.792
336,2006/11/1,9:42:00,  5-54.207N,114-38.872E,35.2,29.7944,32.7921
337,2006/11/1,9:43:00,  5-54.385N,114-39.004E,37.2,29.8082,32.7926
338,2006/11/1,9:44:00,  5-54.564N,114-39.134E,37.8,29.8149,32.7933
339,2006/11/1,9:45:00,  5-54.743N,114-39.263E,36.7,29.8228,32.7932
340,2006/11/1,9:46:00,  5-54.920N,114-39.395E,38.7,29.823,32.7943
341,2006/11/1,9:47:00,  5-55.098N,114-39.525E,36.7,29.8251,32.7954
342,2006/11/1,9:48:00,  5-55.276N,114-39.656E,35.4,29.8172,32.796
343,2006/11/1,9:49:00,  5-55.454N,114-39.786E,35.6,29.8404,32.7979
344,2006/11/1,9:50:00,  5-55.632N,114-39.919E,37.3,29.8376,32.7992
345,2006/11/1,9:51:00,  5-55.809N,114-40.049E,36.5,29.8478,32.8002
346,2006/11/1,9:52:00,  5-55.986N,114-40.180E,35.7,29.861,32.8033
347,2006/11/1,9:53:00,  5-56.161N,114-40.309E,35.5,29.8729,32.8053
348,2006/11/1,9:54:00,  5-56.338N,114-40.440E,36.5,29.8897,32.8067
349,2006/11/1,9:55:00,  5-56.514N,114-40.571E,36.1,29.8943,32.807
350,2006/11/1,9:56:00,  5-56.690N,114-40.702E,35.9,29.9001,32.8064
351,2006/11/1,9:57:00,  5-56.866N,114-40.832E,36.8,29.8901,32.8029
352,2006/11/1,9:58:00,  5-57.041N,114-40.963E,38.9,29.8954,32.7986
353,2006/11/1,9:59:00,  5-57.215N,114-41.094E,34.9,29.909,32.7913
354,2006/11/1,10:00:00,  5-57.388N,114-41.224E,36.3,29.9118,32.7794
355,2006/11/1,10:01:00,  5-57.561N,114-41.355E,34.7,29.9034,32.7682
356,2006/11/1,10:02:00,  5-57.736N,114-41.482E,34,29.8918,32.7586
358,2006/11/1,10:04:00,  5-58.082N,114-41.739E,35.6,29.8765,32.7487
359,2006/11/1,10:05:00,  5-58.254N,114-41.868E,36.9,29.8664,32.7525
360,2006/11/1,10:06:00,  5-58.426N,114-41.996E,38.5,29.8696,32.7526
361,2006/11/1,10:07:00,  5-58.599N,114-42.124E,36.4,29.8668,32.7526
362,2006/11/1,10:08:00,  5-58.771N,114-42.254E,35.6,29.859,32.7534
363,2006/11/1,10:09:00,  5-58.943N,114-42.382E,39.3,29.8567,32.7536
364,2006/11/1,10:10:00,  5-59.116N,114-42.511E,35.3,29.8571,32.7536
365,2006/11/1,10:11:00,  5-59.287N,114-42.640E,36.9,29.8536,32.7535
366,2006/11/1,10:12:00,  5-59.459N,114-42.770E,37.8,29.8562,32.754
367,2006/11/1,10:13:00,  5-59.631N,114-42.898E,39.6,29.8516,32.7541
368,2006/11/1,10:14:00,  5-59.804N,114-43.026E,37.5,29.8508,32.754
369,2006/11/1,10:15:00,  5-59.976N,114-43.156E,37.5,29.8504,32.7529
370,2006/11/1,10:16:00,  6-00.148N,114-43.287E,34.6,29.8485,32.7526
371,2006/11/1,10:17:00,  6-00.320N,114-43.415E,35.7,29.8662,32.7521
372,2006/11/1,10:18:00,  6-00.493N,114-43.543E,36.8,29.8636,32.7526
373,2006/11/1,10:19:00,  6-00.664N,114-43.672E,34.3,29.8621,32.7524
374,2006/11/1,10:20:00,  6-00.836N,114-43.801E,35.9,29.8612,32.7512
375,2006/11/1,10:21:00,  6-01.006N,114-43.931E,36.2,29.8694,32.7507
376,2006/11/1,10:22:00,  6-01.178N,114-44.061E,36.8,29.8954,32.7507
377,2006/11/1,10:23:00,  6-01.349N,114-44.190E,35.1,29.9264,32.7503
378,2006/11/1,10:24:00,  6-01.520N,114-44.319E,35.5,29.9333,32.7514
379,2006/11/1,10:25:00,  6-01.691N,114-44.447E,35.5,29.9339,32.7521
380,2006/11/1,10:26:00,  6-01.862N,114-44.576E,38.4,29.9222,32.7488
381,2006/11/1,10:27:00,  6-02.034N,114-44.703E,38.5,29.9074,32.7408
382,2006/11/1,10:28:00,  6-02.206N,114-44.831E,37.3,29.8894,32.7324
383,2006/11/1,10:29:00,  6-02.379N,114-44.961E,36,29.8867,32.7241
384,2006/11/1,10:30:00,  6-02.551N,114-45.091E,37.8,29.8964,32.7151
385,2006/11/1,10:31:00,  6-02.721N,114-45.219E,37.6,29.9077,32.7087
386,2006/11/1,10:32:00,  6-02.894N,114-45.346E,35.5,29.9033,32.7027
387,2006/11/1,10:33:00,  6-03.066N,114-45.474E,34.7,29.8944,32.698
388,2006/11/1,10:34:00,  6-03.237N,114-45.603E,36.8,29.8889,32.6909
389,2006/11/1,10:35:00,  6-03.408N,114-45.731E,36.5,29.8964,32.6857
390,2006/11/1,10:36:00,  6-03.580N,114-45.858E,35.3,29.9077,32.6825
391,2006/11/1,10:37:00,  6-03.752N,114-45.986E,38.3,29.9084,32.6801
392,2006/11/1,10:38:00,  6-03.922N,114-46.115E,35.9,29.9019,32.6772
393,2006/11/1,10:39:00,  6-04.091N,114-46.243E,37,29.8771,32.6731
394,2006/11/1,10:40:00,  6-04.261N,114-46.371E,34,29.8644,32.6687
395,2006/11/1,10:41:00,  6-04.430N,114-46.498E,35.7,29.8511,32.664
396,2006/11/1,10:42:00,  6-04.599N,114-46.625E,35.9,29.8636,32.6598
397,2006/11/1,10:43:00,  6-04.770N,114-46.752E,35.6,29.8668,32.6539
398,2006/11/1,10:44:00,  6-04.940N,114-46.878E,34.9,29.8572,32.6477
399,2006/11/1,10:45:00,  6-05.110N,114-47.002E,36.6,29.861,32.6413
400,2006/11/1,10:46:00,  6-05.281N,114-47.129E,35.4,29.858,32.6325
401,2006/11/1,10:47:00,  6-05.451N,114-47.255E,34.2,29.8517,32.6243